sat.trackr.live / text

‹ back to catalog

IRIS-F3

NORAD 62619 · 2025-009L

PAYLOAD ACTIVE UNKNOWN

§ Identity

Operator
Country
ROC
Launch date
2025-01-14
Launch site
AFWTR
Launch vehicle
Mass (kg)
RCS (m²)

External: N2YO · Heavens-Above · Gunter

§ Orbital elements

Epoch: 2026-09-22T17:11:52.821312Z

Period
94.22 min
Inclination
97.3995°
Eccentricity
0.0005614
Mean motion
15.28311823 rev/d
Perigee alt
477.0 km
Apogee alt
484.7 km
Semi-major
6,859.0 km
B*
1.7225e-4
RAAN
345.8526°
Arg perigee
353.8330°
Mean anomaly
6.2839°
Rev number
9,371

§ Raw data

IRIS-F31 62619U 25009L   26265.71658358  .00004676  00000+0  17225-3 0  99962 62619  97.3995 345.8526 0005614 353.8330   6.2839 15.28311823 93714

JSON: /api/v1/satellites/62619 · /tle

For live sub-satellite position, see the globe view (requires WebGL).

§ Visibility from observer

Set your observer location to see the next 7 days of passes ≥ 10°. The values pass through the URL so the page stays shareable.

No JS? Fill the form by hand. The geolocation button needs JavaScript.

§ Radio — SatNOGS DB

ModeDescriptionDownlinkUplink
FM Mode S - Transmitter 2.280 GHz
BPSK Mode U - BPSK4k8 400.920 MHz

2 transmitters · refreshed weekly from db.satnogs.org